Year,Month,Day,Hour,Minute,Value (Times are PST for temperature in C)
2020,10,02,00,00,3.80
2020,10,02,00,01,3.80
2020,10,02,00,02,3.70
2020,10,02,00,03,3.70
2020,10,02,00,04,3.70
2020,10,02,00,05,3.70
2020,10,02,00,06,3.70
2020,10,02,00,07,3.70
2020,10,02,00,08,3.70
2020,10,02,00,09,3.70
2020,10,02,00,10,3.70
2020,10,02,00,11,3.70
2020,10,02,00,12,3.70
2020,10,02,00,13,3.60
2020,10,02,00,14,3.60
2020,10,02,00,15,3.60
2020,10,02,00,16,3.60
2020,10,02,00,17,3.60
2020,10,02,00,18,3.60
2020,10,02,00,19,3.60
2020,10,02,00,20,3.60
2020,10,02,00,21,3.60
2020,10,02,00,22,3.60
2020,10,02,00,23,3.60
2020,10,02,00,24,3.60
2020,10,02,00,25,3.60
2020,10,02,00,26,3.60
2020,10,02,00,27,3.60
2020,10,02,00,28,3.60
2020,10,02,00,29,3.50
2020,10,02,00,30,3.50
2020,10,02,00,31,3.50
2020,10,02,00,32,3.50
2020,10,02,00,33,3.50
2020,10,02,00,34,3.50
2020,10,02,00,35,3.40
2020,10,02,00,36,3.40
2020,10,02,00,37,3.40
2020,10,02,00,38,3.40
2020,10,02,00,39,3.40
2020,10,02,00,40,3.40
2020,10,02,00,41,3.40
2020,10,02,00,42,3.40
2020,10,02,00,43,3.40
2020,10,02,00,44,3.40
2020,10,02,00,45,3.40
2020,10,02,00,46,3.40
2020,10,02,00,47,3.40
2020,10,02,00,48,3.40
2020,10,02,00,49,3.40
2020,10,02,00,50,3.40
2020,10,02,00,51,3.40
2020,10,02,00,52,3.40
2020,10,02,00,53,3.30
2020,10,02,00,54,3.30
2020,10,02,00,55,3.30
2020,10,02,00,56,3.30
2020,10,02,00,57,3.30
2020,10,02,00,58,3.30
2020,10,02,00,59,3.30
2020,10,02,01,00,3.30
2020,10,02,01,01,3.30
2020,10,02,01,02,3.30
2020,10,02,01,03,3.30
2020,10,02,01,04,3.30
2020,10,02,01,05,3.30
2020,10,02,01,06,3.30
2020,10,02,01,07,3.30
2020,10,02,01,08,3.30
2020,10,02,01,09,3.30
2020,10,02,01,10,3.30
2020,10,02,01,11,3.30
2020,10,02,01,12,3.30
2020,10,02,01,13,3.30
2020,10,02,01,14,3.40
2020,10,02,01,15,3.40
2020,10,02,01,16,3.40
2020,10,02,01,17,3.40
2020,10,02,01,18,3.40
2020,10,02,01,19,3.40
2020,10,02,01,20,3.40
2020,10,02,01,21,3.30
2020,10,02,01,22,3.30
2020,10,02,01,23,3.30
2020,10,02,01,24,3.30
2020,10,02,01,25,3.30
2020,10,02,01,26,3.30
2020,10,02,01,27,3.30
2020,10,02,01,28,3.30
2020,10,02,01,29,3.30
2020,10,02,01,30,3.30
2020,10,02,01,31,3.30
2020,10,02,01,32,3.30
2020,10,02,01,33,3.30
2020,10,02,01,34,3.30
2020,10,02,01,35,3.20
2020,10,02,01,36,3.20
2020,10,02,01,37,3.20
2020,10,02,01,38,3.20
2020,10,02,01,39,3.20
2020,10,02,01,40,3.20
2020,10,02,01,41,3.20
2020,10,02,01,42,3.20
2020,10,02,01,43,3.20
2020,10,02,01,44,3.20
2020,10,02,01,45,3.20
2020,10,02,01,46,3.20
2020,10,02,01,47,3.20
2020,10,02,01,48,3.20
2020,10,02,01,49,3.20
2020,10,02,01,50,3.20
2020,10,02,01,51,3.20
2020,10,02,01,52,3.20
2020,10,02,01,53,3.20
2020,10,02,01,54,3.20
2020,10,02,01,55,3.20
2020,10,02,01,56,3.20
2020,10,02,01,57,3.20
2020,10,02,01,58,3.20
2020,10,02,01,59,3.20
2020,10,02,02,00,3.30
2020,10,02,02,01,3.30
2020,10,02,02,02,3.30
2020,10,02,02,03,3.30
2020,10,02,02,04,3.40
2020,10,02,02,05,3.40
2020,10,02,02,06,3.50
2020,10,02,02,07,3.50
2020,10,02,02,08,3.50
2020,10,02,02,09,3.60
2020,10,02,02,10,3.60
2020,10,02,02,11,3.60
2020,10,02,02,12,3.60
2020,10,02,02,13,3.60
2020,10,02,02,14,3.60
2020,10,02,02,15,3.60
2020,10,02,02,16,3.60
2020,10,02,02,17,3.60
2020,10,02,02,18,3.60
2020,10,02,02,19,3.60
2020,10,02,02,20,3.60
2020,10,02,02,21,3.60
2020,10,02,02,22,3.60
2020,10,02,02,23,3.60
2020,10,02,02,24,3.60
2020,10,02,02,25,3.60
2020,10,02,02,26,3.60
2020,10,02,02,27,3.60
2020,10,02,02,28,3.60
2020,10,02,02,29,3.60
2020,10,02,02,30,3.60
2020,10,02,02,31,3.60
2020,10,02,02,32,3.60
2020,10,02,02,33,3.60
2020,10,02,02,34,3.60
2020,10,02,02,35,3.60
2020,10,02,02,36,3.60
2020,10,02,02,37,3.60
2020,10,02,02,38,3.60
2020,10,02,02,39,3.60
2020,10,02,02,40,3.70
2020,10,02,02,41,3.70
2020,10,02,02,42,3.70
2020,10,02,02,43,3.70
2020,10,02,02,44,3.70
2020,10,02,02,45,3.70
2020,10,02,02,46,3.70
2020,10,02,02,47,3.70
2020,10,02,02,48,3.70
2020,10,02,02,49,3.70
2020,10,02,02,50,3.70
2020,10,02,02,51,3.70
2020,10,02,02,52,3.70
2020,10,02,02,53,3.70
2020,10,02,02,54,3.70
2020,10,02,02,55,3.70
2020,10,02,02,56,3.70
2020,10,02,02,57,3.70
2020,10,02,02,58,3.70
2020,10,02,02,59,3.70
2020,10,02,03,00,3.70
2020,10,02,03,01,3.70
2020,10,02,03,02,3.70
2020,10,02,03,03,3.70
2020,10,02,03,04,3.70
2020,10,02,03,05,3.70
2020,10,02,03,06,3.70
2020,10,02,03,07,3.70
2020,10,02,03,08,3.70
2020,10,02,03,09,3.70
2020,10,02,03,10,3.70
2020,10,02,03,11,3.70
2020,10,02,03,12,3.70
2020,10,02,03,13,3.70
2020,10,02,03,14,3.60
2020,10,02,03,15,3.60
2020,10,02,03,16,3.60
2020,10,02,03,17,3.60
2020,10,02,03,18,3.60
2020,10,02,03,19,3.60
2020,10,02,03,20,3.60
2020,10,02,03,21,3.60
2020,10,02,03,22,3.60
2020,10,02,03,23,3.60
2020,10,02,03,24,3.60
2020,10,02,03,25,3.60
2020,10,02,03,26,3.60
2020,10,02,03,27,3.60
2020,10,02,03,28,3.60
2020,10,02,03,29,3.60
2020,10,02,03,30,3.70
2020,10,02,03,31,3.70
2020,10,02,03,32,3.70
2020,10,02,03,33,3.70
2020,10,02,03,34,3.70
2020,10,02,03,35,3.70
2020,10,02,03,36,3.60
2020,10,02,03,37,3.60
2020,10,02,03,38,3.60
2020,10,02,03,39,3.60
2020,10,02,03,40,3.60
2020,10,02,03,41,3.60
2020,10,02,03,42,3.60
2020,10,02,03,43,3.60
2020,10,02,03,44,3.50
2020,10,02,03,45,3.50
2020,10,02,03,46,3.50
2020,10,02,03,47,3.60
2020,10,02,03,48,3.60
2020,10,02,03,49,3.60
2020,10,02,03,50,3.60
2020,10,02,03,51,3.60
2020,10,02,03,52,3.70
2020,10,02,03,53,3.70
2020,10,02,03,54,3.70
2020,10,02,03,55,3.70
2020,10,02,03,56,3.70
2020,10,02,03,57,3.70
2020,10,02,03,58,3.70
2020,10,02,03,59,3.70
2020,10,02,04,00,3.80
2020,10,02,04,01,3.80
2020,10,02,04,02,3.80
2020,10,02,04,03,3.80
2020,10,02,04,04,3.80
2020,10,02,04,05,3.80
2020,10,02,04,06,3.80
2020,10,02,04,07,3.90
2020,10,02,04,08,3.90
2020,10,02,04,09,3.90
2020,10,02,04,10,3.90
2020,10,02,04,11,3.90
2020,10,02,04,12,3.90
2020,10,02,04,13,3.90
2020,10,02,04,14,3.90
2020,10,02,04,15,3.90
2020,10,02,04,16,3.90
2020,10,02,04,17,3.90
2020,10,02,04,18,3.90
2020,10,02,04,19,3.90
2020,10,02,04,20,3.90
2020,10,02,04,21,3.90
2020,10,02,04,22,3.90
2020,10,02,04,23,3.90
2020,10,02,04,24,3.90
2020,10,02,04,25,3.90
2020,10,02,04,26,3.90
2020,10,02,04,27,3.90
2020,10,02,04,28,3.90
2020,10,02,04,29,3.90
2020,10,02,04,30,3.90
2020,10,02,04,31,3.90
2020,10,02,04,32,4.00
2020,10,02,04,33,4.00
2020,10,02,04,34,4.00
2020,10,02,04,35,4.00
2020,10,02,04,36,4.00
2020,10,02,04,37,4.00
2020,10,02,04,38,4.10
2020,10,02,04,39,4.00
2020,10,02,04,40,4.00
2020,10,02,04,41,4.10
2020,10,02,04,42,4.10
2020,10,02,04,43,4.10
2020,10,02,04,44,4.10
2020,10,02,04,45,4.10
2020,10,02,04,46,4.10
2020,10,02,04,47,4.10
2020,10,02,04,48,4.10
2020,10,02,04,49,4.10
2020,10,02,04,50,4.10
2020,10,02,04,51,4.10
2020,10,02,04,52,4.10
2020,10,02,04,53,4.10
2020,10,02,04,54,4.10
2020,10,02,04,55,4.10
2020,10,02,04,56,4.10
2020,10,02,04,57,4.10
2020,10,02,04,58,4.10
2020,10,02,04,59,4.10
2020,10,02,05,00,4.10
2020,10,02,05,01,4.10
2020,10,02,05,02,4.10
2020,10,02,05,03,4.10
2020,10,02,05,04,4.20
2020,10,02,05,05,4.20
2020,10,02,05,06,4.20
2020,10,02,05,07,4.20
2020,10,02,05,08,4.20
2020,10,02,05,09,4.20
2020,10,02,05,10,4.20
2020,10,02,05,11,4.20
2020,10,02,05,12,4.20
2020,10,02,05,13,4.20
2020,10,02,05,14,4.20
2020,10,02,05,15,4.20
2020,10,02,05,16,4.20
2020,10,02,05,17,4.20
2020,10,02,05,18,4.30
2020,10,02,05,19,4.30
2020,10,02,05,20,4.30
2020,10,02,05,21,4.30
2020,10,02,05,22,4.30
2020,10,02,05,23,4.30
2020,10,02,05,24,4.30
2020,10,02,05,25,4.30
2020,10,02,05,26,4.30
2020,10,02,05,27,4.30
2020,10,02,05,28,4.30
2020,10,02,05,29,4.30
2020,10,02,05,30,4.30
2020,10,02,05,31,4.30
2020,10,02,05,32,4.30
2020,10,02,05,33,4.30
2020,10,02,05,34,4.30
2020,10,02,05,35,4.30
2020,10,02,05,36,4.30
2020,10,02,05,37,4.30
2020,10,02,05,38,4.30
2020,10,02,05,39,4.30
2020,10,02,05,40,4.30
2020,10,02,05,41,4.30
2020,10,02,05,42,4.30
2020,10,02,05,43,4.30
2020,10,02,05,44,4.30
2020,10,02,05,45,4.30
2020,10,02,05,46,4.30
2020,10,02,05,47,4.30
2020,10,02,05,48,4.30
2020,10,02,05,49,4.30
2020,10,02,05,50,4.30
2020,10,02,05,51,4.30
2020,10,02,05,52,4.30
2020,10,02,05,53,4.30
2020,10,02,05,54,4.30
2020,10,02,05,55,4.30
2020,10,02,05,56,4.30
2020,10,02,05,57,4.30
2020,10,02,05,58,4.30
2020,10,02,05,59,4.30
2020,10,02,06,00,4.30
2020,10,02,06,01,4.30
2020,10,02,06,02,4.30
2020,10,02,06,03,4.30
2020,10,02,06,04,4.30
2020,10,02,06,05,4.30
2020,10,02,06,06,4.30
2020,10,02,06,07,4.30
2020,10,02,06,08,4.30
2020,10,02,06,09,4.40
2020,10,02,06,10,4.40
2020,10,02,06,11,4.40
2020,10,02,06,12,4.40
2020,10,02,06,13,4.40
2020,10,02,06,14,4.40
2020,10,02,06,15,4.40
2020,10,02,06,16,4.40
2020,10,02,06,17,4.40
2020,10,02,06,18,4.40
2020,10,02,06,19,4.40
2020,10,02,06,20,4.40
2020,10,02,06,21,4.40
2020,10,02,06,22,4.40
2020,10,02,06,23,4.40
2020,10,02,06,24,4.40
2020,10,02,06,25,4.40
2020,10,02,06,26,4.40
2020,10,02,06,27,4.40
2020,10,02,06,28,4.40
2020,10,02,06,29,4.40
2020,10,02,06,30,4.40
2020,10,02,06,31,4.40
2020,10,02,06,32,4.40
2020,10,02,06,33,4.40
2020,10,02,06,34,4.40
2020,10,02,06,35,4.40
2020,10,02,06,36,4.40
2020,10,02,06,37,4.40
2020,10,02,06,38,4.40
2020,10,02,06,39,4.40
2020,10,02,06,40,4.50
2020,10,02,06,41,4.50
2020,10,02,06,42,4.50
2020,10,02,06,43,4.50
2020,10,02,06,44,4.50
2020,10,02,06,45,4.50
2020,10,02,06,46,4.50
2020,10,02,06,47,4.50
2020,10,02,06,48,4.60
2020,10,02,06,49,4.60
2020,10,02,06,50,4.60
2020,10,02,06,51,4.60
2020,10,02,06,52,4.60
2020,10,02,06,53,4.60
2020,10,02,06,54,4.60
2020,10,02,06,55,4.70
2020,10,02,06,56,4.70
2020,10,02,06,57,4.70
2020,10,02,06,58,4.70
2020,10,02,06,59,4.70
2020,10,02,07,00,4.70
2020,10,02,07,01,4.70
2020,10,02,07,02,4.80
2020,10,02,07,03,4.80
2020,10,02,07,04,4.80
2020,10,02,07,05,4.80
2020,10,02,07,06,4.80
2020,10,02,07,07,4.80
2020,10,02,07,08,4.80
2020,10,02,07,09,4.80
2020,10,02,07,10,4.80
2020,10,02,07,11,4.80
2020,10,02,07,12,4.80
2020,10,02,07,13,4.90
2020,10,02,07,14,4.90
2020,10,02,07,15,4.90
2020,10,02,07,16,4.90
2020,10,02,07,17,4.90
2020,10,02,07,18,4.90
2020,10,02,07,19,4.90
2020,10,02,07,20,4.90
2020,10,02,07,21,4.90
2020,10,02,07,22,4.90
2020,10,02,07,23,5.00
2020,10,02,07,24,5.00
2020,10,02,07,25,5.00
2020,10,02,07,26,5.00
2020,10,02,07,27,5.10
2020,10,02,07,28,5.10
2020,10,02,07,29,5.10
2020,10,02,07,30,5.10
2020,10,02,07,31,5.10
2020,10,02,07,32,5.10
2020,10,02,07,33,5.20
2020,10,02,07,34,5.20
2020,10,02,07,35,5.20
2020,10,02,07,36,5.20
2020,10,02,07,37,5.20
2020,10,02,07,38,5.20
2020,10,02,07,39,5.20
2020,10,02,07,40,5.20
2020,10,02,07,41,5.20
2020,10,02,07,42,5.20
2020,10,02,07,43,5.20
2020,10,02,07,44,5.30
2020,10,02,07,45,5.30
2020,10,02,07,46,5.30
2020,10,02,07,47,5.30
2020,10,02,07,48,5.30
2020,10,02,07,49,5.30
2020,10,02,07,50,5.30
2020,10,02,07,51,5.30
2020,10,02,07,52,5.30
2020,10,02,07,53,5.30
2020,10,02,07,54,5.30
2020,10,02,07,55,5.30
2020,10,02,07,56,5.30
2020,10,02,07,57,5.30
2020,10,02,07,58,5.40
2020,10,02,07,59,5.40
2020,10,02,08,00,5.40
2020,10,02,08,01,5.40
2020,10,02,08,02,5.40
2020,10,02,08,03,5.40
2020,10,02,08,04,5.40
2020,10,02,08,05,5.40
2020,10,02,08,06,5.40
2020,10,02,08,07,5.50
2020,10,02,08,08,5.50
2020,10,02,08,09,5.50
2020,10,02,08,10,5.50
2020,10,02,08,11,5.50
2020,10,02,08,12,5.60
2020,10,02,08,13,5.60
2020,10,02,08,14,5.60
2020,10,02,08,15,5.60
2020,10,02,08,16,5.70
2020,10,02,08,17,5.70
2020,10,02,08,18,5.70
2020,10,02,08,19,5.70
2020,10,02,08,20,5.70
2020,10,02,08,21,5.70
2020,10,02,08,22,5.70
2020,10,02,08,23,5.70
2020,10,02,08,24,5.70
2020,10,02,08,25,5.80
2020,10,02,08,26,5.80
2020,10,02,08,27,5.90
2020,10,02,08,28,5.90
2020,10,02,08,29,6.00
2020,10,02,08,30,6.00
2020,10,02,08,31,6.00
2020,10,02,08,32,6.10
2020,10,02,08,33,6.10
2020,10,02,08,34,6.20
2020,10,02,08,35,6.40
2020,10,02,08,36,6.50
2020,10,02,08,37,6.60
2020,10,02,08,38,6.70
2020,10,02,08,39,6.80
2020,10,02,08,40,6.80
2020,10,02,08,41,6.90
2020,10,02,08,42,6.90
2020,10,02,08,43,7.00
2020,10,02,08,44,7.00
2020,10,02,08,45,7.00
2020,10,02,08,46,7.00
2020,10,02,08,47,6.90
2020,10,02,08,48,6.90
2020,10,02,08,49,6.90
2020,10,02,08,50,6.90
2020,10,02,08,51,6.90
2020,10,02,08,52,6.80
2020,10,02,08,53,6.80
2020,10,02,08,54,6.80
2020,10,02,08,55,6.80
2020,10,02,08,56,6.80
2020,10,02,08,57,6.80
2020,10,02,08,58,6.80
2020,10,02,08,59,6.80
2020,10,02,09,00,6.70
2020,10,02,09,01,6.70
2020,10,02,09,02,6.70
2020,10,02,09,03,6.70
2020,10,02,09,04,6.70
2020,10,02,09,05,6.70
2020,10,02,09,06,6.70
2020,10,02,09,07,6.70
2020,10,02,09,08,6.70
2020,10,02,09,09,6.70
2020,10,02,09,10,6.70
2020,10,02,09,11,6.70
2020,10,02,09,12,6.70
2020,10,02,09,13,6.70
2020,10,02,09,14,6.70
2020,10,02,09,15,6.70
2020,10,02,09,16,6.70
2020,10,02,09,17,6.70
2020,10,02,09,18,6.70
2020,10,02,09,19,6.70
2020,10,02,09,20,6.60
2020,10,02,09,21,6.60
2020,10,02,09,22,6.60
2020,10,02,09,23,6.60
2020,10,02,09,24,6.60
2020,10,02,09,25,6.50
2020,10,02,09,26,6.50
2020,10,02,09,27,6.50
2020,10,02,09,28,6.50
2020,10,02,09,29,6.50
2020,10,02,09,30,6.50
2020,10,02,09,31,6.40
2020,10,02,09,32,6.50
2020,10,02,09,33,6.40
2020,10,02,09,34,6.50
2020,10,02,09,35,6.40
2020,10,02,09,36,6.40
2020,10,02,09,37,6.40
2020,10,02,09,38,6.40
2020,10,02,09,39,6.40
2020,10,02,09,40,6.40
2020,10,02,09,41,6.40
2020,10,02,09,42,6.40
2020,10,02,09,43,6.40
2020,10,02,09,44,6.40
2020,10,02,09,45,6.40
2020,10,02,09,46,6.40
2020,10,02,09,47,6.40
2020,10,02,09,48,6.40
2020,10,02,09,49,6.40
2020,10,02,09,50,6.40
2020,10,02,09,51,6.40
2020,10,02,09,52,6.50
2020,10,02,09,53,6.50
2020,10,02,09,54,6.50
2020,10,02,09,55,6.50
2020,10,02,09,56,6.50
2020,10,02,09,57,6.50
2020,10,02,09,58,6.50
2020,10,02,09,59,6.60
2020,10,02,10,00,6.60
2020,10,02,10,01,6.60
2020,10,02,10,02,6.60
2020,10,02,10,03,6.60
2020,10,02,10,04,6.60
2020,10,02,10,05,6.70
2020,10,02,10,06,6.70
2020,10,02,10,07,6.70
2020,10,02,10,08,6.70
2020,10,02,10,09,6.70
2020,10,02,10,10,6.70
2020,10,02,10,11,6.70
2020,10,02,10,12,6.70
2020,10,02,10,13,6.70
2020,10,02,10,14,6.80
2020,10,02,10,15,6.80
2020,10,02,10,16,6.70
2020,10,02,10,17,6.80
2020,10,02,10,18,6.80
2020,10,02,10,19,6.80
2020,10,02,10,20,6.80
2020,10,02,10,21,6.80
2020,10,02,10,22,6.80
2020,10,02,10,23,6.80
2020,10,02,10,24,6.80
2020,10,02,10,25,6.80
2020,10,02,10,26,6.80
2020,10,02,10,27,6.80
2020,10,02,10,28,6.80
2020,10,02,10,29,6.80
2020,10,02,10,30,6.80
2020,10,02,10,31,6.80
2020,10,02,10,32,6.80
2020,10,02,10,33,6.80
2020,10,02,10,34,6.80
2020,10,02,10,35,6.80
2020,10,02,10,36,6.80
2020,10,02,10,37,6.90
2020,10,02,10,38,6.90
2020,10,02,10,39,6.90
2020,10,02,10,40,6.90
2020,10,02,10,41,6.90
2020,10,02,10,42,6.90
2020,10,02,10,43,7.00
2020,10,02,10,44,7.00
2020,10,02,10,45,7.00
2020,10,02,10,46,7.00
2020,10,02,10,47,7.10
2020,10,02,10,48,7.20
2020,10,02,10,49,7.30
2020,10,02,10,50,7.40
2020,10,02,10,51,7.40
2020,10,02,10,52,7.40
2020,10,02,10,53,7.50
2020,10,02,10,54,7.50
2020,10,02,10,55,7.60
2020,10,02,10,56,7.80
2020,10,02,10,57,7.90
2020,10,02,10,58,8.10
2020,10,02,10,59,8.40
2020,10,02,11,00,8.60
2020,10,02,11,01,8.80
2020,10,02,11,02,8.90
2020,10,02,11,03,8.90
2020,10,02,11,04,8.90
2020,10,02,11,05,8.90
2020,10,02,11,06,8.90
2020,10,02,11,07,8.90
2020,10,02,11,08,8.80
2020,10,02,11,09,8.90
2020,10,02,11,10,8.90
2020,10,02,11,11,9.00
2020,10,02,11,12,9.10
2020,10,02,11,13,9.20
2020,10,02,11,14,9.30
2020,10,02,11,15,9.50
2020,10,02,11,16,9.60
2020,10,02,11,17,9.70
2020,10,02,11,18,9.80
2020,10,02,11,19,9.80
2020,10,02,11,20,9.90
2020,10,02,11,21,9.90
2020,10,02,11,22,9.90
2020,10,02,11,23,9.90
2020,10,02,11,24,9.90
2020,10,02,11,25,9.90
2020,10,02,11,26,9.90
2020,10,02,11,27,9.90
2020,10,02,11,28,9.90
2020,10,02,11,29,9.90
2020,10,02,11,30,9.90
2020,10,02,11,31,9.90
2020,10,02,11,32,9.90
2020,10,02,11,33,9.90
2020,10,02,11,34,9.90
2020,10,02,11,35,9.90
2020,10,02,11,36,9.90
2020,10,02,11,37,9.90
2020,10,02,11,38,9.90
2020,10,02,11,39,9.90
2020,10,02,11,40,9.90
2020,10,02,11,41,9.90
2020,10,02,11,42,10.00
2020,10,02,11,43,10.00
2020,10,02,11,44,10.10
2020,10,02,11,45,10.10
2020,10,02,11,46,10.10
2020,10,02,11,47,10.20
2020,10,02,11,48,10.20
2020,10,02,11,49,10.20
2020,10,02,11,50,10.30
2020,10,02,11,51,10.30
2020,10,02,11,52,10.30
2020,10,02,11,53,10.30
2020,10,02,11,54,10.40
2020,10,02,11,55,10.40
2020,10,02,11,56,10.40
2020,10,02,11,57,10.40
2020,10,02,11,58,10.40
2020,10,02,11,59,10.40
2020,10,02,12,00,10.40
2020,10,02,12,01,10.40
2020,10,02,12,02,10.40
2020,10,02,12,03,10.40
2020,10,02,12,04,10.30
2020,10,02,12,05,10.30
2020,10,02,12,06,10.30
2020,10,02,12,07,10.20
2020,10,02,12,08,10.20
2020,10,02,12,09,10.20
2020,10,02,12,10,10.20
2020,10,02,12,11,10.20
2020,10,02,12,12,10.30
2020,10,02,12,13,10.30
2020,10,02,12,14,10.40
2020,10,02,12,15,10.40
2020,10,02,12,16,10.50
2020,10,02,12,17,10.60
2020,10,02,12,18,10.60
2020,10,02,12,19,10.70
2020,10,02,12,20,10.70
2020,10,02,12,21,10.70
2020,10,02,12,22,10.80
2020,10,02,12,23,10.80
2020,10,02,12,24,10.80
2020,10,02,12,25,10.80
2020,10,02,12,26,10.90
2020,10,02,12,27,10.90
2020,10,02,12,28,10.90
2020,10,02,12,29,11.00
2020,10,02,12,30,11.00
2020,10,02,12,31,11.00
2020,10,02,12,32,11.00
2020,10,02,12,33,11.10
2020,10,02,12,34,11.10
2020,10,02,12,35,11.10
2020,10,02,12,36,11.10
2020,10,02,12,37,11.10
2020,10,02,12,38,11.10
2020,10,02,12,39,11.10
2020,10,02,12,40,11.20
2020,10,02,12,41,11.20
2020,10,02,12,42,11.20
2020,10,02,12,43,11.20
2020,10,02,12,44,11.20
2020,10,02,12,45,11.20
2020,10,02,12,46,11.30
2020,10,02,12,47,11.30
2020,10,02,12,48,11.30
2020,10,02,12,49,11.30
2020,10,02,12,50,11.30
2020,10,02,12,51,11.30
2020,10,02,12,52,11.30
2020,10,02,12,53,11.30
2020,10,02,12,54,11.30
2020,10,02,12,55,11.30
2020,10,02,12,56,11.30
2020,10,02,12,57,11.30
2020,10,02,12,58,11.40
2020,10,02,12,59,11.40
2020,10,02,13,00,11.40
2020,10,02,13,01,11.40
2020,10,02,13,02,11.40
2020,10,02,13,03,11.40
2020,10,02,13,04,11.40
2020,10,02,13,05,11.40
2020,10,02,13,06,11.40
2020,10,02,13,07,11.40
2020,10,02,13,08,11.50
2020,10,02,13,09,11.50
2020,10,02,13,10,11.50
2020,10,02,13,11,11.50
2020,10,02,13,12,11.50
2020,10,02,13,13,11.50
2020,10,02,13,14,11.50
2020,10,02,13,15,11.60
2020,10,02,13,16,11.60
2020,10,02,13,17,11.60
2020,10,02,13,18,11.60
2020,10,02,13,19,11.60
2020,10,02,13,20,11.60
2020,10,02,13,21,11.60
2020,10,02,13,22,11.70
2020,10,02,13,23,11.70
2020,10,02,13,24,11.70
2020,10,02,13,25,11.70
2020,10,02,13,26,11.70
2020,10,02,13,27,11.70
2020,10,02,13,28,11.70
2020,10,02,13,29,11.80
2020,10,02,13,30,11.80
2020,10,02,13,31,11.80
2020,10,02,13,32,11.80
2020,10,02,13,33,11.80
2020,10,02,13,34,11.80
2020,10,02,13,35,11.80
2020,10,02,13,36,11.80
2020,10,02,13,37,11.90
2020,10,02,13,38,11.90
2020,10,02,13,39,11.90
2020,10,02,13,40,11.90
2020,10,02,13,41,12.00
2020,10,02,13,42,12.00
2020,10,02,13,43,12.00
2020,10,02,13,44,12.10
2020,10,02,13,45,12.10
2020,10,02,13,46,12.10
2020,10,02,13,47,12.10
2020,10,02,13,48,12.20
2020,10,02,13,49,12.20
2020,10,02,13,50,12.20
2020,10,02,13,51,12.20
2020,10,02,13,52,12.20
2020,10,02,13,53,12.30
2020,10,02,13,54,12.30
2020,10,02,13,55,12.30
2020,10,02,13,56,12.30
2020,10,02,13,57,12.30
2020,10,02,13,58,12.40
2020,10,02,13,59,12.40
2020,10,02,14,00,12.40
2020,10,02,14,01,12.40
2020,10,02,14,02,12.40
2020,10,02,14,03,12.40
2020,10,02,14,04,12.40
2020,10,02,14,05,12.40
2020,10,02,14,06,12.50
2020,10,02,14,07,12.50
2020,10,02,14,08,12.50
2020,10,02,14,09,12.50
2020,10,02,14,10,12.60
2020,10,02,14,11,12.60
2020,10,02,14,12,12.60
2020,10,02,14,13,12.60
2020,10,02,14,14,12.60
2020,10,02,14,15,12.60
2020,10,02,14,16,12.60
2020,10,02,14,17,12.60
2020,10,02,14,18,12.60
2020,10,02,14,19,12.60
2020,10,02,14,20,12.60
2020,10,02,14,21,12.60
2020,10,02,14,22,12.60
2020,10,02,14,23,12.60
2020,10,02,14,24,12.60
2020,10,02,14,25,12.70
2020,10,02,14,26,12.70
2020,10,02,14,27,12.70
2020,10,02,14,28,12.70
2020,10,02,14,29,12.70
2020,10,02,14,30,12.80
2020,10,02,14,31,12.80
2020,10,02,14,32,12.80
2020,10,02,14,33,12.80
2020,10,02,14,34,12.90
2020,10,02,14,35,12.90
2020,10,02,14,36,12.90
2020,10,02,14,37,12.90
2020,10,02,14,38,12.90
2020,10,02,14,39,12.90
2020,10,02,14,40,13.00
2020,10,02,14,41,13.00
2020,10,02,14,42,13.10
2020,10,02,14,43,13.10
2020,10,02,14,44,13.10
2020,10,02,14,45,13.10
2020,10,02,14,46,13.10
2020,10,02,14,47,13.10
2020,10,02,14,48,13.10
2020,10,02,14,49,13.10
2020,10,02,14,50,13.20
2020,10,02,14,51,13.20
2020,10,02,14,52,13.20
2020,10,02,14,53,13.20
2020,10,02,14,54,13.20
2020,10,02,14,55,13.20
2020,10,02,14,56,13.20
2020,10,02,14,57,13.20
2020,10,02,14,58,13.30
2020,10,02,14,59,13.30
2020,10,02,15,00,13.30
2020,10,02,15,01,13.30
2020,10,02,15,02,13.30
2020,10,02,15,03,13.30
2020,10,02,15,04,13.30
2020,10,02,15,05,13.30
2020,10,02,15,06,13.30
2020,10,02,15,07,13.30
2020,10,02,15,08,13.30
2020,10,02,15,09,13.30
2020,10,02,15,10,13.30
2020,10,02,15,11,13.40
2020,10,02,15,12,13.40
2020,10,02,15,13,13.40
2020,10,02,15,14,13.40
2020,10,02,15,15,13.40
2020,10,02,15,16,13.40
2020,10,02,15,17,13.40
2020,10,02,15,18,13.50
2020,10,02,15,19,13.50
2020,10,02,15,20,13.50
2020,10,02,15,21,13.50
2020,10,02,15,22,13.60
2020,10,02,15,23,13.60
2020,10,02,15,24,13.60
2020,10,02,15,25,13.60
2020,10,02,15,26,13.60
2020,10,02,15,27,13.60
2020,10,02,15,28,13.70
2020,10,02,15,29,13.70
2020,10,02,15,30,13.80
2020,10,02,15,31,13.80
2020,10,02,15,32,13.90
2020,10,02,15,33,13.90
2020,10,02,15,34,14.00
2020,10,02,15,35,14.10
2020,10,02,15,36,14.10
2020,10,02,15,37,14.10
2020,10,02,15,38,14.10
2020,10,02,15,39,14.20
2020,10,02,15,40,14.20
2020,10,02,15,41,14.20
2020,10,02,15,42,14.20
2020,10,02,15,43,14.20
2020,10,02,15,44,14.20
2020,10,02,15,45,14.20
2020,10,02,15,46,14.20
2020,10,02,15,47,14.20
2020,10,02,15,48,14.30
2020,10,02,15,49,14.30
2020,10,02,15,50,14.30
2020,10,02,15,51,14.30
2020,10,02,15,52,14.40
2020,10,02,15,53,14.40
2020,10,02,15,54,14.40
2020,10,02,15,55,14.40
2020,10,02,15,56,14.50
2020,10,02,15,57,14.50
2020,10,02,15,58,14.60
2020,10,02,15,59,14.60
2020,10,02,16,00,14.60
2020,10,02,16,01,14.60
2020,10,02,16,02,14.60
2020,10,02,16,03,14.70
2020,10,02,16,04,14.70
2020,10,02,16,05,14.70
2020,10,02,16,06,14.70
2020,10,02,16,07,14.70
2020,10,02,16,08,14.70
2020,10,02,16,09,14.70
2020,10,02,16,10,14.70
2020,10,02,16,11,14.80
2020,10,02,16,12,14.80
2020,10,02,16,13,14.80
2020,10,02,16,14,14.80
2020,10,02,16,15,14.80
2020,10,02,16,16,14.80
2020,10,02,16,17,14.80
2020,10,02,16,18,14.80
2020,10,02,16,19,14.80
2020,10,02,16,20,14.80
2020,10,02,16,21,14.80
2020,10,02,16,22,14.80
2020,10,02,16,23,14.80
2020,10,02,16,24,14.90
2020,10,02,16,25,14.90
2020,10,02,16,26,14.90
2020,10,02,16,27,15.00
2020,10,02,16,28,15.00
2020,10,02,16,29,15.00
2020,10,02,16,30,15.00
2020,10,02,16,31,15.10
2020,10,02,16,32,15.10
2020,10,02,16,33,15.10
2020,10,02,16,34,15.10
2020,10,02,16,35,15.20
2020,10,02,16,36,15.20
2020,10,02,16,37,15.20
2020,10,02,16,38,15.20
2020,10,02,16,39,15.10
2020,10,02,16,40,15.10
2020,10,02,16,41,15.10
2020,10,02,16,42,15.10
2020,10,02,16,43,15.10
2020,10,02,16,44,15.10
2020,10,02,16,45,15.20
2020,10,02,16,46,15.20
2020,10,02,16,47,15.20
2020,10,02,16,48,15.20
2020,10,02,16,49,15.20
2020,10,02,16,50,15.20
2020,10,02,16,51,15.20
2020,10,02,16,52,15.20
2020,10,02,16,53,15.20
2020,10,02,16,54,15.30
2020,10,02,16,55,15.20
2020,10,02,16,56,15.30
2020,10,02,16,57,15.30
2020,10,02,16,58,15.30
2020,10,02,16,59,15.30
2020,10,02,17,00,15.30
2020,10,02,17,01,15.30
2020,10,02,17,02,15.30
2020,10,02,17,03,15.30
2020,10,02,17,04,15.30
2020,10,02,17,05,15.30
2020,10,02,17,06,15.30
2020,10,02,17,07,15.30
2020,10,02,17,08,15.30
2020,10,02,17,09,15.30
2020,10,02,17,10,15.30
2020,10,02,17,11,15.30
2020,10,02,17,12,15.20
2020,10,02,17,13,15.20
2020,10,02,17,14,15.20
2020,10,02,17,15,15.20
2020,10,02,17,16,15.20
2020,10,02,17,17,15.20
2020,10,02,17,18,15.20
2020,10,02,17,19,15.20
2020,10,02,17,20,15.20
2020,10,02,17,21,15.20
2020,10,02,17,22,15.20
2020,10,02,17,23,15.20
2020,10,02,17,24,15.10
2020,10,02,17,25,15.10
2020,10,02,17,26,15.10
2020,10,02,17,27,15.10
2020,10,02,17,28,15.10
2020,10,02,17,29,15.10
2020,10,02,17,30,15.10
2020,10,02,17,31,15.10
2020,10,02,17,32,15.10
2020,10,02,17,33,15.10
2020,10,02,17,34,15.10
2020,10,02,17,35,15.10
2020,10,02,17,36,15.10
2020,10,02,17,37,15.10
2020,10,02,17,38,15.10
2020,10,02,17,39,15.10
2020,10,02,17,40,15.10
2020,10,02,17,41,15.10
2020,10,02,17,42,15.10
2020,10,02,17,43,15.10
2020,10,02,17,44,15.10
2020,10,02,17,45,15.10
2020,10,02,17,46,15.20
2020,10,02,17,47,15.20
2020,10,02,17,48,15.20
2020,10,02,17,49,15.10